User: anonymous   Login
Location: Vigo di Fassa
(46.4167°N, 11.6667°E)
Time: 05:33:23
(UTC+00:00)
Language:

Gbstr 26 Del rocket - Orbit

View from above orbital plane
View from above orbital plane
View from above satellite
View from above satellite

Ground track
Ground track

The orbit data is extracted from the following two-line orbital elements,

1 25876U 99041E   21128.42097127 -.00000133  00000-0  17118-4 0  9997
2 25876  51.7652 107.3453 0530710 211.9016 144.8732 14.04568426114314
Epoch (UTC): 08 May 2021 10:06:11
Eccentricity: 0.0530710
inclination: 51.7652°
perigee height: 493 km
apogee height: 1263 km
right ascension of ascending node: 107.3453°
argument of perigee: 211.9016°
revolutions per day: 14.04568426
mean anomaly at epoch: 144.8732°
orbit number at epoch: 11431

The dashed part of the orbit path shows where the satellite is in the earth's shadow,  

DLR